Weather History for CWZL - February, 2013

Change the Weather History Date:

Thursday, February 21, 2013

  Actual Average Record
Temperature  
Mean Temperature 40 °F -  
Max Temperature 44 °F - - ()
Min Temperature 39 °F - - ()
Degree Days  
Heating Degree Days 24    
Moisture  
Dew Point 37 °F    
Average Humidity 86    
Maximum Humidity 93    
Minimum Humidity 72    
Precipitation  
Precipitation 0.00 in - - ()
Sea Level Pressure  
Sea Level Pressure 29.55 in    
Wind  
Wind Speed 11 mph ()    
Max Wind Speed 32 mph    
Max Gust Speed -    
T = Trace of Precipitation, MM = Missing Value Source: Averaged Metar Reports

Daily Weather History Graph

Daily Weather History Graph

Search for Another Location

Airport or City:

Trip Planner

Search our weather history database for the weather conditions in past years. The results will help you decide how hot, cold, wet, or windy it might be!

Date:

Astronomy

Feb. 21, 2013 Rise Set
Actual Time 7:50 AM PST 6:10 PM PST
Civil Twilight 7:15 AM PST 6:45 PM PST
Nautical Twilight 6:35 AM PST 7:25 PM PST
Astronomical Twilight 5:55 AM PST 8:05 PM PST
Moon 2:10 PM PST (2/21) 5:22 AM PST (2/21)
Length of Visible Light 11h 30m
Length of Day
10h 20m
Waxing Gibbous, 84% of the Moon is Illuminated
Feb 21
Waxing Gibbous
Feb 25
Full
Mar 4
Last Quarter
Mar 11
New
Mar 19
First Quarter

Hourly Weather History & Observations

Time (PST) Temp. Windchill Dew Point Humidity Pressure Visibility Wind Dir Wind Speed Gust Speed Precip Events Conditions
12:00 AM 39.7 °F 31.2 °F 37.8 °F 93% 29.44 in - South 16.1 mph - N/A   Unknown
1:00 AM 39.4 °F 35.2 °F 35.8 °F 87% 29.45 in - SW 5.8 mph - N/A   Unknown
2:00 AM 40.8 °F 35.6 °F 37.2 °F 87% 29.47 in - SSW 8.1 mph - N/A   Unknown
3:00 AM 39.6 °F - 36.1 °F 88% 29.49 in - NNE 2.3 mph - N/A   Unknown
4:00 AM 40 °F - 37 °F 84% 29.52 in - SW 9.2 mph - -  
4:00 AM 39.6 °F 33.5 °F 36.9 °F 90% 29.52 in - SW 9.2 mph - N/A   Unknown
5:00 AM 39.4 °F 33.8 °F 36.9 °F 91% 29.56 in - West 8.1 mph - N/A   Unknown
6:00 AM 39.6 °F 34.0 °F 35.8 °F 86% 29.58 in - WSW 8.1 mph - N/A   Unknown
7:00 AM 39.6 °F 34.7 °F 35.8 °F 86% 29.62 in - West 6.9 mph - N/A   Unknown
8:00 AM 39.2 °F 35.0 °F 35.8 °F 88% 29.64 in - WSW 5.8 mph - N/A   Unknown
9:00 AM 39.7 °F 34.9 °F 36.5 °F 88% 29.65 in - SSW 6.9 mph - N/A   Unknown
10:00 AM 40 °F - 34 °F 72% 29.68 in - WSW 8.1 mph - -  
10:00 AM 40.5 °F 35.1 °F 34.0 °F 78% 29.68 in - WSW 8.1 mph - N/A   Unknown
11:00 AM 41.0 °F 37.1 °F 34.2 °F 77% 29.69 in - SSW 5.8 mph - N/A   Unknown
12:00 PM 40.8 °F 36.2 °F 33.6 °F 76% 29.70 in - SSW 6.9 mph - N/A   Unknown
1:00 PM 40.3 °F 33.9 °F 34.7 °F 80% 29.70 in - South 10.4 mph - N/A   Unknown
2:00 PM 40.1 °F 34.1 °F 34.5 °F 80% 29.70 in - South 9.2 mph - N/A   Unknown
3:00 PM 39.9 °F 31.1 °F 36.0 °F 86% 29.68 in - South 17.3 mph - N/A   Unknown
4:00 PM 40 °F - 37 °F 83% 29.65 in - South 23.0 mph - -  
4:00 PM 39.9 °F 29.7 °F 36.7 °F 88% 29.65 in - South 23.0 mph - N/A   Unknown
5:00 PM 40.1 °F 30.2 °F 36.3 °F 86% 29.61 in - South 21.9 mph - N/A   Unknown
6:00 PM 39.7 °F 27.9 °F 36.9 °F 89% 29.53 in - SSE 31.1 mph - N/A   Unknown
7:00 PM 39.9 °F 28.0 °F 37.4 °F 91% 29.47 in - SSE 32.2 mph - N/A   Unknown
8:00 PM 40.6 °F 30.0 °F 37.8 °F 89% 29.42 in - South 26.5 mph - N/A   Unknown
9:00 PM 40.6 °F 31.7 °F 38.5 °F 92% 29.38 in - South 18.4 mph - N/A   Unknown
10:00 PM 42 °F - 40 °F 88% 29.31 in - South 25.3 mph - -  
10:00 PM 41.9 °F 31.9 °F 39.7 °F 92% 29.31 in - South 25.3 mph - N/A   Unknown
11:00 PM 44.6 °F 36.4 °F 40.6 °F 86% 29.31 in - South 20.7 mph - N/A   Unknown